DGDRP LKKV-EDXW

Flight info

Callsign DGDRP
Flight time 1h 32m
Altitude 21000
Route VARI3F VARIK L602 NARUS M726 LASTO M852 SOKWO DCT OLDIP
Aircraft B58T/L-DFGORY/SB2

Departure

Time 2026-05-08 15:12
Airport Karlovy Vary Airport (LKKV)

Arrival

Time 2026-05-08 16:44
Airport Westerland Sylt Airport (EDXW)
Time Latitude Longitude Altitude Speed Heading
2026-05-08 15:00 50.20200 12.91195 1989 ft 0 kts 205°
2026-05-08 15:06 50.20199 12.91195 1989 ft 0 kts 206°
2026-05-08 15:07 50.20197 12.91189 1989 ft 4 kts 281°
2026-05-08 15:07 50.20230 12.91170 1989 ft 12 kts 348°
2026-05-08 15:07 50.20278 12.91249 1991 ft 12 kts 110°
2026-05-08 15:07 50.20239 12.91395 1994 ft 17 kts 113°
2026-05-08 15:08 50.20186 12.91595 1990 ft 23 kts 115°
2026-05-08 15:08 50.20142 12.91748 1990 ft 23 kts 113°
2026-05-08 15:08 50.20059 12.92051 1992 ft 22 kts 114°
2026-05-08 15:08 50.20001 12.92263 1993 ft 22 kts 111°
2026-05-08 15:09 50.19943 12.92476 1993 ft 17 kts 113°
2026-05-08 15:09 50.19909 12.92611 1989 ft 9 kts 95°
2026-05-08 15:09 50.19917 12.92656 1989 ft 0 kts 36°
2026-05-08 15:10 50.19930 12.92664 1989 ft 5 kts
2026-05-08 15:11 50.19980 12.92636 1991 ft 11 kts 329°
2026-05-08 15:11 50.20031 12.92516 1991 ft 22 kts 294°
2026-05-08 15:11 50.20179 12.91982 1990 ft 90 kts 293°
2026-05-08 15:11 50.20457 12.90896 2201 ft 114 kts 293°
2026-05-08 15:12 50.20739 12.89734 2666 ft 114 kts 292°
2026-05-08 15:12 50.21072 12.88568 3135 ft 120 kts 297°
2026-05-08 15:12 50.21423 12.87370 3606 ft 123 kts 295°
2026-05-08 15:12 50.21774 12.86116 4057 ft 132 kts 294°
2026-05-08 15:13 50.22143 12.84777 4531 ft 137 kts 293°
2026-05-08 15:13 50.22520 12.83394 5008 ft 140 kts 292°
2026-05-08 15:13 50.22823 12.81948 5473 ft 141 kts 281°
2026-05-08 15:13 50.23029 12.80447 5951 ft 142 kts 281°
2026-05-08 15:14 50.23246 12.78942 6416 ft 142 kts 281°
2026-05-08 15:14 50.23463 12.77445 6909 ft 141 kts 282°
2026-05-08 15:14 50.23678 12.75949 7397 ft 141 kts 282°
2026-05-08 15:14 50.23893 12.74469 7890 ft 139 kts 282°
2026-05-08 15:15 50.24107 12.73001 8391 ft 137 kts 283°
2026-05-08 15:15 50.24313 12.71571 8894 ft 133 kts 283°
2026-05-08 15:15 50.24515 12.70179 9402 ft 130 kts 283°
2026-05-08 15:15 50.24713 12.68814 9923 ft 127 kts 283°
2026-05-08 15:16 50.24903 12.67500 10392 ft 124 kts 283°
2026-05-08 15:16 50.25091 12.66196 10853 ft 122 kts 283°
2026-05-08 15:16 50.25274 12.64922 11337 ft 119 kts 283°
2026-05-08 15:16 50.25453 12.63682 11815 ft 116 kts 283°
2026-05-08 15:17 50.25630 12.62455 12258 ft 116 kts 282°
2026-05-08 15:17 50.25806 12.61230 12712 ft 115 kts 282°
2026-05-08 15:17 50.25984 12.59995 13121 ft 119 kts 282°
2026-05-08 15:17 50.26169 12.58711 13527 ft 124 kts 282°
2026-05-08 15:18 50.26361 12.57375 13936 ft 128 kts 282°
2026-05-08 15:18 50.26559 12.55994 14309 ft 132 kts 282°
2026-05-08 15:18 50.26764 12.54570 14685 ft 136 kts 282°
2026-05-08 15:18 50.26973 12.53108 15064 ft 139 kts 282°
2026-05-08 15:19 50.27185 12.51630 15444 ft 142 kts 282°
2026-05-08 15:19 50.27409 12.50060 15718 ft 153 kts 281°
2026-05-08 15:19 50.27648 12.48390 15995 ft 162 kts 282°
2026-05-08 15:19 50.27899 12.46634 16277 ft 169 kts 282°
2026-05-08 15:20 50.28154 12.44842 16657 ft 168 kts 282°
2026-05-08 15:20 50.28408 12.43058 17053 ft 168 kts 282°
2026-05-08 15:20 50.28661 12.41280 17456 ft 168 kts 282°
2026-05-08 15:20 50.28914 12.39495 17855 ft 168 kts 282°
2026-05-08 15:21 50.29213 12.37728 18257 ft 169 kts 291°
2026-05-08 15:21 50.29716 12.36070 18635 ft 169 kts 293°
2026-05-08 15:21 50.30213 12.34399 18989 ft 170 kts 293°
2026-05-08 15:21 50.30710 12.32719 19351 ft 171 kts 292°
2026-05-08 15:22 50.31210 12.31029 19718 ft 171 kts 292°
2026-05-08 15:22 50.31712 12.29331 20061 ft 174 kts 292°
2026-05-08 15:22 50.32240 12.27544 20207 ft 187 kts 292°
2026-05-08 15:22 50.32795 12.25667 20418 ft 193 kts 292°
2026-05-08 15:23 50.33365 12.23739 20647 ft 197 kts 292°
2026-05-08 15:23 50.33946 12.21769 20867 ft 201 kts 292°
2026-05-08 15:23 50.34541 12.19770 21042 ft 206 kts 295°
2026-05-08 15:23 50.35216 12.17747 21136 ft 213 kts 294°
2026-05-08 15:24 50.35881 12.15656 21149 ft 221 kts 294°
2026-05-08 15:24 50.36583 12.13461 21149 ft 228 kts 295°
2026-05-08 15:24 50.37310 12.11217 21145 ft 234 kts 295°
2026-05-08 15:24 50.37801 12.09702 21147 ft 236 kts 295°
2026-05-08 15:25 50.38549 12.07392 21146 ft 238 kts 295°
2026-05-08 15:25 50.39301 12.05059 21147 ft 241 kts 295°
2026-05-08 15:25 50.40316 12.01911 21147 ft 245 kts 295°
2026-05-08 15:25 50.41088 11.99514 21148 ft 247 kts 295°
2026-05-08 15:26 50.41613 11.97884 21147 ft 248 kts 295°
2026-05-08 15:26 50.42382 11.95490 21145 ft 250 kts 295°
2026-05-08 15:26 50.43165 11.93053 21145 ft 251 kts 295°
2026-05-08 15:26 50.43952 11.90599 21148 ft 251 kts 295°
2026-05-08 15:27 50.44737 11.88150 21146 ft 252 kts 295°
2026-05-08 15:27 50.45525 11.85688 21148 ft 253 kts 295°
2026-05-08 15:27 50.46318 11.83211 21150 ft 253 kts 295°
2026-05-08 15:27 50.47100 11.80760 21148 ft 254 kts 295°
2026-05-08 15:28 50.47890 11.78275 21150 ft 254 kts 295°
2026-05-08 15:28 50.48680 11.75789 21152 ft 254 kts 295°
2026-05-08 15:28 50.49469 11.73303 21150 ft 254 kts 295°
2026-05-08 15:28 50.50260 11.70812 21151 ft 254 kts 295°
2026-05-08 15:29 50.51038 11.68358 21150 ft 254 kts 295°
2026-05-08 15:29 50.51836 11.65840 21153 ft 254 kts 295°
2026-05-08 15:29 50.52613 11.63381 21153 ft 254 kts 295°
2026-05-08 15:29 50.53402 11.60885 21153 ft 255 kts 295°
2026-05-08 15:30 50.54191 11.58387 21149 ft 255 kts 295°
2026-05-08 15:30 50.54977 11.55893 21150 ft 255 kts 295°
2026-05-08 15:30 50.55767 11.53388 21151 ft 255 kts 294°
2026-05-08 15:30 50.56554 11.50892 21153 ft 255 kts 295°
2026-05-08 15:31 50.57346 11.48388 21154 ft 255 kts 295°
2026-05-08 15:31 50.58127 11.45915 21154 ft 255 kts 295°
2026-05-08 15:31 50.58916 11.43410 21154 ft 256 kts 295°
2026-05-08 15:31 50.59705 11.40902 21158 ft 255 kts 294°
2026-05-08 15:32 50.60494 11.38396 21160 ft 255 kts 294°
2026-05-08 15:32 50.61282 11.35889 21159 ft 255 kts 295°
2026-05-08 15:32 50.62068 11.33386 21161 ft 255 kts 294°
2026-05-08 15:32 50.62854 11.30881 21159 ft 255 kts 294°
2026-05-08 15:33 50.63637 11.28378 21162 ft 254 kts 294°
2026-05-08 15:33 50.64420 11.25878 21162 ft 254 kts 294°
2026-05-08 15:33 50.65203 11.23372 21156 ft 255 kts 294°
2026-05-08 15:33 50.66100 11.21008 21152 ft 257 kts 307°
2026-05-08 15:34 50.67436 11.19123 21156 ft 261 kts 324°
2026-05-08 15:34 50.69098 11.17940 21156 ft 265 kts 341°
2026-05-08 15:34 50.70938 11.17515 21161 ft 268 kts 351°
2026-05-08 15:34 50.72799 11.17245 21164 ft 268 kts 351°
2026-05-08 15:35 50.74657 11.16964 21165 ft 268 kts 351°
2026-05-08 15:35 50.76514 11.16676 21167 ft 268 kts 351°
2026-05-08 15:35 50.78374 11.16392 21165 ft 268 kts 351°
2026-05-08 15:35 50.80210 11.16112 21168 ft 269 kts 351°
2026-05-08 15:36 50.82075 11.15826 21168 ft 269 kts 351°
2026-05-08 15:36 50.83939 11.15540 21168 ft 269 kts 351°
2026-05-08 15:36 50.85802 11.15254 21169 ft 269 kts 351°
2026-05-08 15:36 50.87665 11.14968 21170 ft 269 kts 351°
2026-05-08 15:37 50.89526 11.14681 21167 ft 268 kts 351°
2026-05-08 15:37 50.91389 11.14395 21167 ft 268 kts 351°
2026-05-08 15:37 50.93226 11.14112 21168 ft 268 kts 351°
2026-05-08 15:37 50.95072 11.13816 21166 ft 266 kts 351°
2026-05-08 15:38 50.96928 11.13535 21168 ft 267 kts 351°
2026-05-08 15:38 50.98777 11.13259 21167 ft 267 kts 351°
2026-05-08 15:38 51.00629 11.12972 21168 ft 268 kts 351°
2026-05-08 15:38 51.02489 11.12681 21169 ft 268 kts 351°
2026-05-08 15:39 51.04345 11.12394 21169 ft 268 kts 351°
2026-05-08 15:39 51.06182 11.12110 21170 ft 268 kts 351°
2026-05-08 15:39 51.08044 11.11822 21171 ft 268 kts 351°
2026-05-08 15:39 51.09904 11.11533 21172 ft 268 kts 351°
2026-05-08 15:40 51.11765 11.11244 21171 ft 268 kts 351°
2026-05-08 15:40 51.13565 11.10597 21163 ft 264 kts 335°
2026-05-08 15:40 51.15238 11.09403 21169 ft 263 kts 332°
2026-05-08 15:40 51.16911 11.08212 21172 ft 263 kts 333°
2026-05-08 15:41 51.18570 11.07038 21170 ft 263 kts 333°
2026-05-08 15:41 51.20242 11.05848 21171 ft 263 kts 333°
2026-05-08 15:41 51.21917 11.04652 21171 ft 263 kts 333°
2026-05-08 15:41 51.23593 11.03455 21171 ft 263 kts 333°
2026-05-08 15:42 51.25270 11.02258 21173 ft 264 kts 333°
2026-05-08 15:42 51.26946 11.01060 21174 ft 263 kts 333°
2026-05-08 15:42 51.28621 10.99861 21174 ft 263 kts 333°
2026-05-08 15:42 51.30274 10.98675 21175 ft 264 kts 333°
2026-05-08 15:43 51.31955 10.97471 21175 ft 264 kts 333°
2026-05-08 15:43 51.33631 10.96268 21172 ft 264 kts 333°
2026-05-08 15:43 51.35315 10.95059 21175 ft 264 kts 333°
2026-05-08 15:43 51.36993 10.93856 21175 ft 264 kts 333°
2026-05-08 15:44 51.38776 10.93067 21173 ft 268 kts 350°
2026-05-08 15:44 51.40621 10.92851 21178 ft 269 kts 353°
2026-05-08 15:44 51.42489 10.92635 21177 ft 269 kts 352°
2026-05-08 15:44 51.44358 10.92409 21183 ft 269 kts 352°
2026-05-08 15:45 51.46222 10.92186 21177 ft 269 kts 352°
2026-05-08 15:45 51.48097 10.91964 21182 ft 269 kts 352°
2026-05-08 15:45 51.49966 10.91743 21181 ft 270 kts 352°
2026-05-08 15:45 51.51816 10.91523 21177 ft 270 kts 352°
2026-05-08 15:46 51.53690 10.91300 21175 ft 269 kts 352°
2026-05-08 15:46 51.55559 10.91078 21175 ft 270 kts 352°
2026-05-08 15:46 51.57437 10.90853 21177 ft 270 kts 353°
2026-05-08 15:46 51.59311 10.90630 21180 ft 269 kts 353°
2026-05-08 15:47 51.61181 10.90407 21181 ft 269 kts 353°
2026-05-08 15:47 51.63047 10.90184 21180 ft 269 kts 352°
2026-05-08 15:47 51.64912 10.89961 21181 ft 269 kts 352°
2026-05-08 15:47 51.66762 10.89739 21176 ft 269 kts 353°
2026-05-08 15:48 51.70485 10.89120 21182 ft 269 kts 351°
2026-05-08 15:48 51.72349 10.88824 21183 ft 269 kts 351°
2026-05-08 15:48 51.74209 10.88512 21182 ft 269 kts 351°
2026-05-08 15:49 51.76071 10.88191 21181 ft 269 kts 351°
2026-05-08 15:49 51.77929 10.87873 21181 ft 269 kts 351°
2026-05-08 15:49 51.79794 10.87557 21182 ft 269 kts 351°
2026-05-08 15:49 51.81633 10.87244 21177 ft 269 kts 351°
2026-05-08 15:50 51.83492 10.86931 21182 ft 269 kts 352°
2026-05-08 15:50 51.85360 10.86701 21179 ft 268 kts 352°
2026-05-08 15:50 51.87220 10.86416 21181 ft 268 kts 351°
2026-05-08 15:50 51.89081 10.86137 21176 ft 268 kts 352°
2026-05-08 15:51 51.90944 10.85877 21182 ft 268 kts 352°
2026-05-08 15:51 51.92783 10.85622 21182 ft 268 kts 352°
2026-05-08 15:51 51.94643 10.85360 21180 ft 268 kts 352°
2026-05-08 15:51 51.96509 10.85095 21183 ft 268 kts 352°
2026-05-08 15:52 51.98372 10.84831 21182 ft 269 kts 352°
2026-05-08 15:52 52.00238 10.84568 21178 ft 269 kts 352°
2026-05-08 15:52 52.02103 10.84303 21182 ft 269 kts 352°
2026-05-08 15:52 52.03946 10.84043 21186 ft 269 kts 352°
2026-05-08 15:53 52.05811 10.83777 21180 ft 268 kts 352°
2026-05-08 15:53 52.07673 10.83514 21180 ft 268 kts 352°
2026-05-08 15:53 52.09535 10.83249 21181 ft 268 kts 352°
2026-05-08 15:53 52.11399 10.82984 21182 ft 268 kts 352°
2026-05-08 15:54 52.13233 10.82723 21186 ft 268 kts 352°
2026-05-08 15:54 52.15093 10.82464 21187 ft 268 kts 352°
2026-05-08 15:54 52.16954 10.82211 21188 ft 268 kts 352°
2026-05-08 15:54 52.18817 10.81955 21189 ft 268 kts 352°
2026-05-08 15:55 52.20678 10.81697 21186 ft 268 kts 352°
2026-05-08 15:55 52.24377 10.81185 21187 ft 268 kts 352°
2026-05-08 15:55 52.26242 10.80926 21188 ft 268 kts 352°
2026-05-08 15:56 52.28102 10.80668 21194 ft 268 kts 352°
2026-05-08 15:56 52.29961 10.80411 21195 ft 268 kts 352°
2026-05-08 15:56 52.31821 10.80152 21195 ft 267 kts 352°
2026-05-08 15:56 52.33673 10.79895 21195 ft 267 kts 352°
2026-05-08 15:57 52.35532 10.79636 21193 ft 267 kts 352°
2026-05-08 15:57 52.37321 10.79113 21191 ft 264 kts 341°
2026-05-08 15:57 52.39090 10.78313 21192 ft 264 kts 342°
2026-05-08 15:57 52.40868 10.77537 21191 ft 264 kts 342°
2026-05-08 15:58 52.42656 10.76761 21193 ft 264 kts 342°
2026-05-08 15:58 52.44440 10.75980 21193 ft 265 kts 342°
2026-05-08 15:58 52.46202 10.75204 21192 ft 267 kts 342°
2026-05-08 15:58 52.48003 10.74414 21191 ft 269 kts 342°
2026-05-08 15:59 52.49817 10.73616 21188 ft 270 kts 342°
2026-05-08 15:59 52.51631 10.72820 21184 ft 269 kts 342°
2026-05-08 15:59 52.53440 10.72022 21187 ft 268 kts 342°
2026-05-08 15:59 52.55238 10.71230 21186 ft 267 kts 342°
2026-05-08 16:00 52.57012 10.70448 21182 ft 266 kts 342°
2026-05-08 16:00 52.58797 10.69659 21180 ft 265 kts 342°
2026-05-08 16:00 52.60583 10.68871 21178 ft 265 kts 342°
2026-05-08 16:00 52.62345 10.68090 21176 ft 264 kts 342°
2026-05-08 16:01 52.64124 10.67304 21176 ft 264 kts 342°
2026-05-08 16:01 52.65903 10.66516 21170 ft 264 kts 342°
2026-05-08 16:01 52.67676 10.65730 21172 ft 263 kts 342°
2026-05-08 16:01 52.69425 10.64954 21171 ft 263 kts 342°
2026-05-08 16:02 52.71196 10.64167 21172 ft 263 kts 342°
2026-05-08 16:02 52.72966 10.63381 21171 ft 263 kts 342°
2026-05-08 16:02 52.74734 10.62595 21170 ft 263 kts 342°
2026-05-08 16:02 52.76502 10.61808 21172 ft 263 kts 342°
2026-05-08 16:03 52.78276 10.61017 21179 ft 263 kts 342°
2026-05-08 16:03 52.80024 10.60238 21181 ft 263 kts 342°
2026-05-08 16:03 52.81794 10.59448 21181 ft 263 kts 342°
2026-05-08 16:03 52.83565 10.58657 21181 ft 263 kts 342°
2026-05-08 16:04 52.85336 10.57866 21181 ft 263 kts 342°
2026-05-08 16:04 52.87106 10.57089 21181 ft 263 kts 342°
2026-05-08 16:04 52.88877 10.56316 21181 ft 263 kts 342°
2026-05-08 16:04 52.90624 10.55547 21179 ft 263 kts 342°
2026-05-08 16:05 52.92393 10.54767 21177 ft 263 kts 342°
2026-05-08 16:05 52.94163 10.53987 21176 ft 263 kts 342°
2026-05-08 16:05 52.95927 10.53209 21178 ft 262 kts 342°
2026-05-08 16:05 52.97692 10.52429 21178 ft 262 kts 342°
2026-05-08 16:06 52.99460 10.51648 21180 ft 262 kts 342°
2026-05-08 16:06 53.01226 10.50867 21180 ft 262 kts 342°
2026-05-08 16:06 53.02992 10.50085 21181 ft 262 kts 342°
2026-05-08 16:06 53.04733 10.49314 21181 ft 262 kts 342°
2026-05-08 16:07 53.06498 10.48531 21181 ft 262 kts 342°
2026-05-08 16:07 53.08265 10.47747 21180 ft 262 kts 342°
2026-05-08 16:07 53.10031 10.46962 21181 ft 263 kts 342°
2026-05-08 16:07 53.11798 10.46178 21181 ft 263 kts 342°
2026-05-08 16:08 53.13561 10.45393 21180 ft 262 kts 342°
2026-05-08 16:08 53.15332 10.44605 21177 ft 263 kts 342°
2026-05-08 16:08 53.17099 10.43818 21178 ft 262 kts 342°
2026-05-08 16:08 53.18843 10.43040 21177 ft 262 kts 342°
2026-05-08 16:09 53.20610 10.42253 21179 ft 262 kts 342°
2026-05-08 16:09 53.21780 10.41731 21177 ft 263 kts 342°
2026-05-08 16:09 53.24143 10.40675 21177 ft 262 kts 342°
2026-05-08 16:09 53.25906 10.39886 21179 ft 262 kts 342°
2026-05-08 16:10 53.27671 10.39096 21182 ft 262 kts 342°
2026-05-08 16:10 53.29436 10.38306 21176 ft 263 kts 342°
2026-05-08 16:10 53.31206 10.37512 21178 ft 263 kts 342°
2026-05-08 16:10 53.32970 10.36721 21178 ft 263 kts 342°
2026-05-08 16:11 53.34716 10.35937 21179 ft 262 kts 342°
2026-05-08 16:11 53.36483 10.35142 21179 ft 262 kts 342°
2026-05-08 16:11 53.38250 10.34347 21179 ft 262 kts 342°
2026-05-08 16:11 53.40017 10.33553 21186 ft 262 kts 342°
2026-05-08 16:12 53.41765 10.32764 21180 ft 262 kts 342°
2026-05-08 16:12 53.43529 10.31969 21180 ft 262 kts 342°
2026-05-08 16:12 53.45297 10.31163 21175 ft 262 kts 341°
2026-05-08 16:12 53.47063 10.30356 21175 ft 262 kts 341°
2026-05-08 16:13 53.48826 10.29551 21174 ft 262 kts 341°
2026-05-08 16:13 53.50568 10.28756 21176 ft 262 kts 341°
2026-05-08 16:13 53.52333 10.27950 21175 ft 262 kts 341°
2026-05-08 16:13 53.54100 10.27141 21174 ft 262 kts 341°
2026-05-08 16:14 53.55859 10.26336 21181 ft 262 kts 341°
2026-05-08 16:14 53.57624 10.25527 21176 ft 262 kts 341°
2026-05-08 16:14 53.58793 10.24991 21175 ft 263 kts 341°
2026-05-08 16:14 53.60552 10.24185 21175 ft 263 kts 341°
2026-05-08 16:15 53.62894 10.23109 21175 ft 263 kts 341°
2026-05-08 16:15 53.64659 10.22297 21175 ft 263 kts 341°
2026-05-08 16:15 53.65856 10.21746 21175 ft 263 kts 341°
2026-05-08 16:15 53.67598 10.20944 21175 ft 263 kts 341°
2026-05-08 16:16 53.69371 10.20183 21174 ft 263 kts 344°
2026-05-08 16:16 53.71156 10.19467 21175 ft 263 kts 343°
2026-05-08 16:16 53.72932 10.18718 21177 ft 263 kts 343°
2026-05-08 16:16 53.74711 10.17983 21178 ft 263 kts 343°
2026-05-08 16:17 53.76469 10.17267 21179 ft 263 kts 343°
2026-05-08 16:17 53.78254 10.16538 21179 ft 263 kts 343°
2026-05-08 16:17 53.80034 10.15808 21181 ft 263 kts 343°
2026-05-08 16:17 53.81817 10.15076 21194 ft 263 kts 343°
2026-05-08 16:18 53.83552 10.14362 21184 ft 264 kts 343°
2026-05-08 16:18 53.85323 10.13635 21186 ft 264 kts 343°
2026-05-08 16:18 53.87108 10.12901 21187 ft 264 kts 343°
2026-05-08 16:18 53.88896 10.12164 21190 ft 264 kts 343°
2026-05-08 16:19 53.90691 10.11424 21191 ft 265 kts 343°
2026-05-08 16:19 53.92483 10.10684 21194 ft 265 kts 343°
2026-05-08 16:19 53.94274 10.09946 21196 ft 265 kts 343°
2026-05-08 16:19 53.96066 10.09205 21198 ft 265 kts 343°
2026-05-08 16:20 53.97837 10.08472 21199 ft 265 kts 343°
2026-05-08 16:20 53.99632 10.07730 21200 ft 265 kts 343°
2026-05-08 16:20 54.01421 10.06988 21201 ft 265 kts 343°
2026-05-08 16:20 54.03211 10.06245 21206 ft 265 kts 343°
2026-05-08 16:21 54.05005 10.05500 21206 ft 265 kts 343°
2026-05-08 16:21 54.06804 10.04753 21206 ft 265 kts 343°
2026-05-08 16:21 54.08576 10.04017 21204 ft 266 kts 343°
2026-05-08 16:21 54.10304 10.02984 21201 ft 262 kts 329°
2026-05-08 16:22 54.11774 10.01172 21200 ft 259 kts 314°
2026-05-08 16:22 54.12896 9.98782 21091 ft 261 kts 302°
2026-05-08 16:22 54.13904 9.96176 20743 ft 265 kts 302°
2026-05-08 16:22 54.14924 9.93554 20373 ft 264 kts 302°
2026-05-08 16:23 54.15921 9.90997 20002 ft 259 kts 302°
2026-05-08 16:23 54.16898 9.88492 19622 ft 255 kts 302°
2026-05-08 16:23 54.17874 9.85973 19251 ft 252 kts 302°
2026-05-08 16:23 54.18836 9.83493 18885 ft 250 kts 302°
2026-05-08 16:24 54.19802 9.81042 18522 ft 247 kts 302°
2026-05-08 16:24 54.20740 9.78594 18121 ft 244 kts 301°
2026-05-08 16:24 54.21671 9.76185 17760 ft 241 kts 302°
2026-05-08 16:24 54.22578 9.73856 17435 ft 236 kts 301°
2026-05-08 16:25 54.23463 9.71510 17110 ft 233 kts 301°
2026-05-08 16:25 54.24363 9.69174 16789 ft 236 kts 303°
2026-05-08 16:25 54.25292 9.66833 16482 ft 238 kts 302°
2026-05-08 16:25 54.26203 9.64446 16172 ft 240 kts 302°
2026-05-08 16:26 54.27110 9.62071 15873 ft 241 kts 302°
2026-05-08 16:26 54.28039 9.59663 15571 ft 242 kts 302°
2026-05-08 16:26 54.28966 9.57256 15271 ft 242 kts 302°
2026-05-08 16:26 54.29881 9.54873 14979 ft 242 kts 302°
2026-05-08 16:27 54.30808 9.52451 14682 ft 241 kts 302°
2026-05-08 16:27 54.31730 9.50045 14391 ft 241 kts 303°
2026-05-08 16:27 54.32649 9.47645 14099 ft 240 kts 302°
2026-05-08 16:27 54.33555 9.45276 13794 ft 239 kts 302°
2026-05-08 16:28 54.34469 9.42887 13470 ft 238 kts 302°
2026-05-08 16:28 54.35373 9.40516 13150 ft 237 kts 302°
2026-05-08 16:28 54.36272 9.38156 12833 ft 236 kts 302°
2026-05-08 16:28 54.37160 9.35822 12527 ft 235 kts 302°
2026-05-08 16:29 54.38055 9.33476 12216 ft 234 kts 302°
2026-05-08 16:29 54.38944 9.31134 11899 ft 233 kts 302°
2026-05-08 16:29 54.39829 9.28800 11607 ft 232 kts 302°
2026-05-08 16:29 54.40700 9.26508 11307 ft 232 kts 302°
2026-05-08 16:30 54.41578 9.24192 11010 ft 231 kts 302°
2026-05-08 16:30 54.42455 9.21877 10708 ft 231 kts 302°
2026-05-08 16:30 54.43332 9.19561 10413 ft 230 kts 302°
2026-05-08 16:30 54.44200 9.17264 10121 ft 229 kts 302°
2026-05-08 16:31 54.45069 9.14963 9796 ft 229 kts 302°
2026-05-08 16:31 54.45935 9.12667 9481 ft 229 kts 302°
2026-05-08 16:31 54.46802 9.10378 9164 ft 228 kts 302°
2026-05-08 16:31 54.47664 9.08080 8846 ft 228 kts 302°
2026-05-08 16:32 54.48515 9.05814 8541 ft 228 kts 303°
2026-05-08 16:32 54.49381 9.03513 8227 ft 228 kts 303°
2026-05-08 16:32 54.50243 9.01219 7919 ft 228 kts 303°
2026-05-08 16:32 54.51105 8.98922 7612 ft 228 kts 304°
2026-05-08 16:33 54.51968 8.96636 7316 ft 227 kts 304°
2026-05-08 16:33 54.52815 8.94345 7020 ft 227 kts 304°
2026-05-08 16:33 54.53669 8.92060 6724 ft 227 kts 305°
2026-05-08 16:33 54.54532 8.89825 6418 ft 226 kts 305°
2026-05-08 16:34 54.55376 8.87553 6108 ft 223 kts 303°
2026-05-08 16:34 54.56191 8.85280 5798 ft 222 kts 306°
2026-05-08 16:34 54.57051 8.83063 5478 ft 221 kts 304°
2026-05-08 16:34 54.57851 8.80799 5179 ft 222 kts 304°
2026-05-08 16:35 54.58693 8.78569 4866 ft 222 kts 306°
2026-05-08 16:35 54.59536 8.76379 4532 ft 223 kts 305°
2026-05-08 16:35 54.60377 8.74085 4192 ft 223 kts 305°
2026-05-08 16:35 54.61204 8.71874 3864 ft 221 kts 303°
2026-05-08 16:36 54.62178 8.69873 3526 ft 214 kts 323°
2026-05-08 16:36 54.63332 8.68464 3178 ft 193 kts 328°
2026-05-08 16:36 54.64380 8.67167 2968 ft 174 kts 328°
2026-05-08 16:36 54.65296 8.65964 2969 ft 157 kts 328°
2026-05-08 16:37 54.66192 8.64926 2962 ft 156 kts 333°
2026-05-08 16:37 54.67102 8.63865 2964 ft 163 kts 331°
2026-05-08 16:37 54.68046 8.62738 2967 ft 166 kts 330°
2026-05-08 16:37 54.68982 8.61587 2969 ft 164 kts 329°
2026-05-08 16:38 54.69902 8.60449 2966 ft 161 kts 330°
2026-05-08 16:38 54.70815 8.59341 2964 ft 160 kts 329°
2026-05-08 16:38 54.71722 8.58222 2967 ft 161 kts 328°
2026-05-08 16:38 54.72640 8.57087 2963 ft 162 kts 329°
2026-05-08 16:39 54.73569 8.55965 2967 ft 163 kts 329°
2026-05-08 16:39 54.74476 8.54833 2961 ft 162 kts 329°
2026-05-08 16:39 54.75393 8.53716 2964 ft 161 kts 328°
2026-05-08 16:39 54.76305 8.52592 2967 ft 160 kts 328°
2026-05-08 16:40 54.77207 8.51472 2964 ft 159 kts 328°
2026-05-08 16:40 54.78109 8.50370 2965 ft 158 kts 328°
2026-05-08 16:40 54.79010 8.49256 2818 ft 158 kts 328°
2026-05-08 16:40 54.79901 8.48155 2606 ft 157 kts 329°
2026-05-08 16:41 54.80779 8.47081 2396 ft 156 kts 327°
2026-05-08 16:41 54.81658 8.45991 2186 ft 155 kts 327°
2026-05-08 16:41 54.82539 8.44907 1974 ft 156 kts 328°
2026-05-08 16:42 54.84281 8.42751 1545 ft 151 kts 329°
2026-05-08 16:42 54.85131 8.41703 1350 ft 148 kts 329°
2026-05-08 16:42 54.85973 8.40664 1152 ft 146 kts 329°
2026-05-08 16:42 54.86743 8.39704 959 ft 128 kts 328°
2026-05-08 16:43 54.87435 8.38856 780 ft 116 kts 327°
2026-05-08 16:43 54.88095 8.38036 625 ft 117 kts 329°
2026-05-08 16:43 54.88759 8.37221 463 ft 116 kts 326°
2026-05-08 16:43 54.89410 8.36377 321 ft 117 kts 328°
2026-05-08 16:44 54.90081 8.35584 150 ft 116 kts 332°
2026-05-08 16:44 54.90718 8.34786 41 ft 106 kts 330°
2026-05-08 16:44 54.91227 8.34176 31 ft 74 kts 326°
2026-05-08 16:44 54.91562 8.33749 30 ft 36 kts 323°
2026-05-08 16:45 54.91676 8.33568 30 ft 19 kts 297°
2026-05-08 16:45 54.91704 8.33453 30 ft 0 kts 294°
2026-05-08 16:45 54.91710 8.33433 30 ft 0 kts 294°
2026-05-08 16:46 54.91713 8.33420 30 ft 5 kts 294°
2026-05-08 16:46 54.91742 8.33304 29 ft 14 kts 294°
2026-05-08 16:46 54.91741 8.33179 29 ft 10 kts 185°
2026-05-08 16:46 54.91675 8.33178 29 ft 11 kts 180°
2026-05-08 16:47 54.91591 8.33179 28 ft 0 kts 180°
2026-05-08 16:47 54.91548 8.33178 26 ft 12 kts 180°
2026-05-08 16:47 54.91482 8.33181 24 ft 10 kts 164°
2026-05-08 16:47 54.91411 8.33244 23 ft 11 kts 164°
2026-05-08 16:48 54.91341 8.33247 23 ft 11 kts 196°
2026-05-08 16:48 54.91268 8.33185 24 ft 11 kts 197°
2026-05-08 16:48 54.91201 8.33179 27 ft 11 kts 180°
2026-05-08 16:48 54.91146 8.33179 29 ft 0 kts 179°
2026-05-08 16:49 54.91125 8.33180 29 ft 11 kts 178°
2026-05-08 16:50 54.91019 8.33103 28 ft 21 kts 249°
2026-05-08 16:50 54.91072 8.32883 26 ft 20 kts 311°
2026-05-08 16:50 54.91171 8.32686 22 ft 24 kts 308°
2026-05-08 16:50 54.91300 8.32538 21 ft 11 kts 330°
2026-05-08 16:51 54.91297 8.32483 21 ft 0 kts 245°